Airfield :
LOGIN :

Register | Disclaimer

   EN    FR    IT 

 










Legend :    VFR   Marginal VFR   IFR   Intensive IFR   Very Intensive IFR
Visi :
Ceiling :
>= 8 km
>= 3000ft
5 to 8 km
1000 to 3000 ft
1500m to 5 km
500 to 1000 ft
800 to 1500m
200 to 500 ft
< 800m
< 200 ft
Symbols :   Thunderstorms  Fog  Heavy snow  Heavy precipitations  Wind > 20 kt
SIGMETs :     Misc.  Thunderstorms  Icing  Turbulence  Mountain Waves  Volcanic Ashes







- Airport Elevation : 915 ft
- IATA code : LUG


LSZA - Lugano

CURRENT METAR :
  • 160820Z VRB01KT CAVOK M00/M03 Q1006 NOSIG

EXPIRED METARs :
  • 160750Z 14001KT CAVOK M00/M02 Q1006 NOSIG
  • 160720Z 01002KT CAVOK M00/M03 Q1005 NOSIG
  • 160650Z 01004KT CAVOK M01/M04 Q1005 NOSIG
  • 160620Z VRB01KT CAVOK M00/M02 Q1004 NOSIG
  • 160550Z VRB02KT CAVOK M01/M03 Q1004 NOSIG

TAF TAF LSZA
Valid from the 16 at 09:00 until the 16 at 18:00 UTC


160825Z 1609/1618 VRB03KT CAVOK
ATIS : +41 22 417 40 88
No reported NOTAMs for that airfield.



MET'MAP, your aeronautical weather chart ! - Copyright ORBIFLY December 2007 - Disclaimer

ORBIFLY MET'MAP TEAM :

Programming & Development : Alexandra Zaïnal
Concept & Development : Baudouin d'Aumeries
Co-Development & Prog : Marc-Olivier Méhu
Technical & hardware support : Manuel Goepfert

Contact : metmap@orbifly.com




SOURCES & CREDITS :

   NOAA